Regional Weather Roundup
Issued by NWS

Home | Current Version | Previous Version | Text Only | Print | Product List | Glossary Off
Versions: 1 2 3 4 5 6 7 8 9 10 11 12 13 14 15 16 17 18 19 20 21 22 23 24 25 26 27 28 29 30 31 32 33 34 35 36 37 38 39 40 41 42 43 44 45 46 47 48 49 50

000
ASUS45 KTFX 191310
RWRMT
MONTANA REGIONAL WEATHER ROUNDUP
NATIONAL WEATHER SERVICE GREAT FALLS MT
600 AM MST FRI JAN 19 2018

NOTE: "FAIR" INDICATES FEW OR NO CLOUDS BELOW 12000 FEET WITH NO
SIGNIFICANT WEATHER AND/OR OBSTRUCTIONS TO VISIBILITY.

MTZ001>007-043-191400-
WEST OF THE DIVIDE

CITY           SKY/WX    TMP DP  RH WIND       PRES   REMARKS
KALISPELL      FAIR      28  28 100 S5        29.72S
MISSOULA       FOG       33  32  96 CALM      29.75S VSB 1
BUTTE          LGT SNOW  31  28  89 NE3       29.66F FOG
MULLAN PASS    SNOW      24  23  96 VRB5      29.68S VSB 1/2
ANACONDA         N/A     30  30 100 CALM      29.69F
DEER LODGE       N/A     30  30 100 CALM      29.71F VSB 3/4
EUREKA           N/A     32  28  86 MISG      29.71F
HAMILTON         N/A     32  32 100 CALM      29.74S
RONAN            N/A     32  32 100 SE9       29.75F WCI  24
$$

MTZ008-052>055-191400-
SOUTHWEST MONTANA

CITY           SKY/WX    TMP DP  RH WIND       PRES   REMARKS
BOZEMAN        CLOUDY    34  33  96 CALM      29.70R
DILLON         MOCLDY    28  28 100 S10       29.65F WCI  19
ENNIS          CLOUDY    36  30  80 SE10G24   29.73F WCI  28
W YELLOWSTONE  LGT SNOW  32  32 100 SW12G17   29.70S VSB 1   WCI  23
THREE FORKS      N/A     33  32  96 CALM      29.72F
$$

MTZ009-010-012-014-046-048-049-054-191400-
EAST SLOPES AND CENTRAL MONTANA

CITY           SKY/WX    TMP DP  RH WIND       PRES   REMARKS
CUT BANK       FAIR      32  23  69 W30G37    29.56F WCI  18
GREAT FALLS    FAIR      34  29  82 SW12      29.63S WCI  25
MALMSTROM AFB  MOCLDY    36  30  79 SW13      29.63F WCI  28
HELENA         CLOUDY    34  33  96 SE5       29.70S
AUGUSTA        CLOUDY    34  25  70 W20       29.61S WCI  22
BOWMANS CRNR   CLOUDY    32  28  88 S14       29.62S WCI  22
CHOTEAU          N/A     37  21  52 VRB5      29.63F
CONRAD           N/A     28  25  89 S5        29.66
FAIRFIELD      CLOUDY    36  25  64 W14       29.62S WCI  27
POWER          MOCLDY    34  27  77 SW18      29.61F WCI  23
ULM            CLOUDY    35  29  80 SE6       29.64S WCI  30
WHITE SULPHUR    N/A     32  30  93 S10       29.66S WCI  24
$$

MTZ011-013-016-021-045-047-050-051-191400-
NORTH CENTRAL MONTANA

CITY           SKY/WX    TMP DP  RH WIND       PRES   REMARKS
HAVRE          FAIR      36  31  82 SW13      29.63S WCI  27
LEWISTOWN      CLOUDY    35  33  92 SW10      29.63F WCI  27
N BAR RANCH    CLOUDY    34  30  86 NW5       29.66F
CHINOOK          N/A     34  32  93 CALM      29.62S
DENTON         FAIR      35  32  90 MISG      29.58F
GEYSER         MOCLDY    35  31  83 W10       29.61F WCI  28
GRASS RANGE    MOCLDY    36  33  87 SW22      29.59F WCI  25
STANFORD       CLOUDY    35  31  85 NW8       29.62F WCI  28
WINIFRED       MOCLDY    36  32  85 SW17      29.60S WCI  26
$$

MTZ017>020-022>027-061-062-191400-
NORTHEAST MONTANA

CITY           SKY/WX    TMP DP  RH WIND       PRES   REMARKS
GLASGOW        FAIR      37  30  75 W10       29.60R WCI  30
GLENDIVE       CLOUDY    38  32  79 NW17      29.61F WCI  28
JORDAN           N/A     37  31  78 W10       29.64R WCI  30
MALTA          PTCLDY    34  28  80 W12       29.62F WCI  25
SIDNEY         CLOUDY    40  30  67 W9        29.54F
WOLF POINT     FAIR      39  32  76 SW7       29.60R
PLENTYWOOD       N/A     37  28  70 W7        29.51F
POPLAR           N/A     36  30  80 CALM      29.59S
$$

MTZ028>42-056>058-191400-
SOUTHCENTRAL AND SOUTHEAST MONTANA

CITY           SKY/WX    TMP DP  RH WIND       PRES   REMARKS
BAKER          CLOUDY    35  30  82 W8        29.61F WCI  29
BILLINGS       LGT RAIN  35  35 100 SW10      29.69F FOG     WCI  27
LIVINGSTON     LGT RAIN  34  34 100 NW6       29.67F WCI  29
MILES CITY     LGT RAIN  35  33  92 SW5       29.68R
BIG TIMBER     CLOUDY    36  34  93 SW18      29.68S WCI  25
FORSYTH          N/A     36  36 100 W8        29.68F WCI  29
HARLOWTON      CLOUDY    33  31  96 S6        29.66S WCI  27
LAUREL           N/A     34  34 100 SW8       29.71F WCI  27
$$

REGIONAL REPORTS...DAKOTAS

CITY           SKY/WX    TMP DP  RH WIND       PRES   REMARKS
WILLISTON      MOCLDY    42  30  62 W18       29.54R
MINOT          CLOUDY    42  30  62 W20G26    29.45F
DICKINSON      FAIR      35  28  75 W14       29.56R WCI  26
BEACH          CLOUDY    36  32  87 NW15      29.62F WCI  26
CROSBY         FAIR      37  30  75 W16       29.51R WCI  28
TIOGA          FAIR      37  32  81 W15       29.55R WCI  28
WATFORD CITY   FAIR      39  30  70 W12       29.56R WCI  32
BISMARCK       FAIR      23  21  92 W6        29.53F WCI  16
GRAND FORKS    MOCLDY    32  28  85 S6        29.45S WCI  26
FARGO          FAIR      31  26  82 S10       29.49  WCI  22
BUFFALO SD       N/A     35  28  75 NW13      29.52R WCI  26
RAPID CITY     FAIR      55  25  31 W17       29.54F
$$

REGIONAL REPORTS...WYOMING/IDAHO/WASHINGTON

CITY           SKY/WX    TMP DP  RH WIND       PRES   REMARKS
GILLETTE       FAIR      41  27  57 N8        29.65R
SHERIDAN       MOCLDY    37  32  82 W13       29.71S WCI  29
BUFFALO WY     FAIR      35  28  75 N16G31    29.68R WCI  25
CODY           FAIR      33  31  92 N14G20    29.67S WCI  23
YELLOWSTONE LA   N/A     29  28  96 VRB6      29.72F WCI  23
IDAHO FALLS    MIX PCPN  35  34  96 S20       29.78F WCI  24
SALMON         CLOUDY    33  32  96 CALM      29.71S FOG
BOISE          LGT RAIN  38  36  92 W3        29.84R
SPOKANE        CLOUDY    33  33 100 SW12      29.80R WCI  24
$$

REGIONAL REPORTS...ALBERTA

CITY           SKY/WX    TMP DP  RH WIND       PRES   REMARKS
CALGARY        PTCLDY    25  10  54 SW6       29.50S WCI  18
CARDSTON         N/A     32  21  64 SW14G22     N/A  WCI  22
EDMONTON       CLOUDY    30  18  59 W9        29.44S WCI  22
FORT MCMURRAY  CLOUDY    32  28  86 W10       29.28S WCI  24
HIGH LEVEL     FLURRIES  18  16  93 N13       29.38R WCI   4
LETHBRIDGE     CLEAR     30  21  69 NW8       29.60R WCI  23
LLOYDMINSTER   MOCLDY    30  21  69 W16G23    29.38R WCI  19
MEDICINE HAT   PTCLDY    28  23  80 SW9       29.55F WCI  20
MILK RIVER       N/A     34  23  64 W29G37      N/A  WCI  20
PEACE RIVER    CLOUDY    28  25  86 SW5       29.39R
PINCHER CREEK  CLEAR     30  23  74 SW25G32   29.57S WCI  16
WATERTON GATE    N/A     30  23  74 SW23G32     N/A  WCI  17
$$

REGIONAL REPORTS...SASKATCHEWAN

CITY           SKY/WX    TMP DP  RH WIND       PRES   REMARKS
CORONACH         N/A     34  28  80 W15         N/A  WCI  24
CYPRESS HILLS    N/A     30  14  51 W13G22      N/A  WCI  20
ESTEVAN        CLOUDY    37  28  70 W15G22    29.47S WCI  28
MOOSE JAW        N/A     30  23  74 W14         N/A  WCI  20
PRINCE ALBERT  MOCLDY    28  23  80 W7        29.34S WCI  21
REGINA         PTCLDY    27  23  86 W13       29.46R WCI  16
ROCKGLEN         N/A     30  25  80 W12         N/A  WCI  21
SASKATOON      PTCLDY    23  21  93 SW12      29.42R WCI  12
SWIFT CURRENT  CLEAR     30  23  74 W18G25    29.48R WCI  18
VAL MARIE        N/A     32  25  74 W10         N/A  WCI  24
$$



USA.gov is the U.S. government's official web portal to all federal, state and local government web resources and services.